Location: Franzen
(48.6167°N, 15.3833°E)
Time: 18:13:30
(UTC+00:00)

A-11 Canister half - Pass Details

Date: 04 August 2021
Orbit: 1515 x 1685 km, 47.2° (Epoch: 19 September)

Event Time Altitude Azimuth Distance (km) Brightness Sun altitude
Rises 15:41:31 0° 237° (WSW) 4,763 12.5 26.4°
Reaches altitude 10° 15:44:34 10° 234° (SW) 3,803 12.1 25.9°
Maximum altitude 15:54:08 65° 156° (SSE) 1,776 9.6 24.3°
Drops below altitude 10° 16:04:02 10° 78° (ENE) 3,932 10.7 22.6°
Sets 16:07:15 0° 75° (ENE) 4,932 11.1 22.1°
